Location: Asheville, NC
(35.6000°N, 82.5500°W)
Time: 16:58:03
(UTC-05:00)

Vanguard 2 Rocket - Pass Details

Date: 13 December 2017
Orbit: 556 x 3326 km, 32.9° (Epoch: 20 January)

Event Time Altitude Azimuth Distance (km) Brightness Sun altitude
Rises 21:51:39 0° 265° (W) 5,629 11.5 -54.7°
Reaches altitude 10° 21:54:47 10° 265° (W) 4,924 11.0 -55.3°
Enters shadow 22:04:53 55° 257° (WSW) 3,287 9.5 -57.3°
